TG5ALY-15 Weather Reports


time (UTC)temp
C
wind
direction
speed
KPH
gust
KPH
rain 1hr
cm
rain 24hr
cm
rain mn
cm
humidity
%
barometer
mb
20260504081754 11 150 0.0 0.0 0.00 0.00 0.00 94 1029.9
20260504045738 11 96 6.4 6.4 0.00 7.32 7.32 97 1032.1
20260504043737 11 60 0.0 0.0 0.00 7.32 7.32 97 1032.1
20260504041735 11 114 3.2 3.2 0.00 7.32 7.32 97 1032.6
20260504035733 12 120 0.0 0.0 0.00 7.32 7.32 97 1032.6
20260504033729 12 84 0.0 0.0 0.00 7.32 7.32 97 1032.6
20260504031727 12 84 6.4 6.4 0.00 7.32 7.32 97 1032.1
20260504025726 12 54 3.2 3.2 0.00 7.32 7.32 97 1032.1
20260504023726 12 180 0.0 0.0 0.00 7.32 7.32 97 1032.6
20260504021723 12 180 0.0 0.0 0.00 7.32 7.32 97 1032.6
20260504015722 11 180 0.0 0.0 2.31 7.32 7.32 97 1032.1
20260504013720 12 66 3.2 3.2 2.31 7.32 7.32 97 1032.6
20260504010858 13 342 6.4 6.4 0.46 0.71 0.71 90 1031.7
20260504004856 13 342 6.4 6.4 0.46 0.71 0.71 90 1031.7
20260504002854 14 318 3.2 3.2 0.08 0.30 0.30 89 1031.7
20260504000854 14 239 3.2 3.2 0.00 0.23 0.23 86 1030.8
20260503234850 15 240 3.2 3.2 0.15 0.23 0.23 86 1030.4
20260503232849 15 300 8.0 9.7 0.15 0.23 0.23 84 1029.9
20260503230849 17 18 12.9 12.9 0.00 0.08 0.08 68 1029.2
20260503224848 19 60 3.2 3.2 0.00 0.08 0.08 58 1028.3
20260503222847 20 78 8.0 9.7 0.00 0.08 0.08 54 1028.7
20260503220844 21 66 9.7 9.7 0.00 0.08 0.08 50 1028.3
20260503214838 21 54 11.3 12.9 0.00 0.08 0.08 47 1028.7
20260503212838 21 114 8.0 9.7 0.00 0.08 0.08 45 1028.7
20260503210837 21 60 4.8 4.8 0.00 0.08 0.08 46 1029.2
20260503204834 21 90 9.7 11.3 0.00 0.08 0.08 49 1029.2
20260503202829 21 30 6.4 6.4 0.00 0.08 0.08 47 1029.2
20260503200825 21 349 9.7 9.7 0.00 0.08 0.08 50 1029.5
20260503194824 20 126 9.7 9.7 0.00 0.08 0.08 53 1029.5
20260503192820 19 90 9.7 11.3 0.00 0.08 0.08 59 1030.4
20260503190817 19 108 4.8 4.8 0.00 0.08 0.08 59 1030.8
20260503184813 19 318 6.4 6.4 0.00 0.08 0.08 61 1031.3
20260503182812 18 25 12.9 14.5 0.00 0.08 0.08 65 1031.3
20260503180807 19 36 8.0 8.0 0.00 0.08 0.08 64 1031.7
20260503174806 18 355 9.7 9.7 0.00 0.08 0.08 69 1032.1
20260503172804 19 312 20.9 22.5 0.00 0.08 0.08 65 1031.7
20260503170803 19 329 17.7 20.9 0.00 0.08 0.08 59 1032.1
20260503150755 17 342 3.2 3.2 0.00 0.08 0.08 68 1031.3
20260503130754 13 48 6.4 8.0 0.00 0.08 0.08 83 1031.3
20260503110732 13 342 6.4 8.0 0.00 0.08 0.08 91 1030.8